Weather History for Columbus, OH

Change the Weather History Date:

Tuesday, January 21, 2014

  Actual Average Record
Temperature  
Mean Temperature 18 °F 29 °F  
Max Temperature 30 °F 36 °F 72 °F (1906)
Min Temperature 6 °F 22 °F -16 °F (1984)
Degree Days  
Heating Degree Days 47 36  
Month to date heating degree days 801 749  
Since 1 July heating degree days 2794 2740  
Cooling Degree Days 0 0  
Month to date cooling degree days 0 0  
Year to date cooling degree days 0 0  
Moisture  
Dew Point 11 °F    
Average Humidity 69    
Maximum Humidity 85    
Minimum Humidity 53    
Precipitation  
Precipitation 0.06 in 0.08 in 4.79 in (1959)
Month to date precipitation 1.96 1.89  
Year to date precipitation 1.96 1.89  
Snow  
Snow 0.70 in 0.30 in 4.50 in (1926)
Month to date snowfall 8.5 6.3  
Since 1 July snowfall 25.9 12.4  
Snow Depth 1.00 in    
Sea Level Pressure  
Sea Level Pressure 29.96 in    
Wind  
Wind Speed 13 mph (NNE)    
Max Wind Speed 25 mph    
Max Gust Speed 35 mph    
Visibility 5 miles    
Events Snow    
T = Trace of Precipitation, MM = Missing Value Source: NWS Daily Summary

Daily Weather History Graph

Daily Weather History Graph

Search for Another Location

Airport:

Trip Planner

Search our weather history database for the weather conditions in past years. The results will help you decide how hot, cold, wet, or windy it might be!

Date:

Astronomy

Jan. 21, 2014 Rise Set
Actual Time 7:48 AM EST 5:37 PM EST
Civil Twilight 7:19 AM EST 6:07 PM EST
Nautical Twilight 6:46 AM EST 6:40 PM EST
Astronomical Twilight 6:13 AM EST 7:12 PM EST
Moon 11:09 PM EST (1/21) 10:17 AM EST (1/21)
Length of Visible Light 10h 47m
Length of Day
9h 49m
Waning Gibbous, 75% of the Moon is Illuminated
Jan 21
Waning Gibbous
Jan 24
Last Quarter
Jan 30
New
Feb 6
First Quarter
Feb 14
Full

Hourly Weather History & Observations

Time (EST) Temp. Windchill Dew Point Humidity Pressure Visibility Wind Dir Wind Speed Gust Speed Precip Events Conditions
12:51 AM 28.9 °F 23.9 °F 24.1 °F 82% 29.88 in 9.0 mi ESE 4.6 mph - N/A   Overcast
1:51 AM 30.0 °F 26.5 °F 23.0 °F 75% 29.86 in 10.0 mi East 3.5 mph - N/A   Overcast
2:51 AM 30.0 °F 25.2 °F 23.0 °F 75% 29.86 in 8.0 mi East 4.6 mph - N/A   Overcast
3:14 AM 28.4 °F 23.3 °F 24.8 °F 86% 29.84 in 1.8 mi NNE 4.6 mph - 0.00 in Snow Light Snow
3:22 AM 28.4 °F 21.2 °F 24.8 °F 86% 29.84 in 1.2 mi NNE 6.9 mph - 0.00 in Snow Light Snow
3:42 AM 28.4 °F 21.2 °F 24.8 °F 86% 29.82 in 1.2 mi NE 6.9 mph - 0.01 in Snow Light Snow
3:51 AM 28.0 °F 20.8 °F 24.1 °F 85% 29.84 in 1.2 mi NE 6.9 mph - 0.02 in Snow Light Snow
4:08 AM 28.4 °F 20.4 °F 24.8 °F 86% 29.81 in 1.5 mi NE 8.1 mph - 0.00 in Snow Light Snow
4:20 AM 26.6 °F 15.2 °F 23.0 °F 86% 29.81 in 1.2 mi NE 13.8 mph - 0.01 in Snow Light Snow
4:30 AM 26.6 °F 18.2 °F 23.0 °F 86% 29.81 in 1.5 mi NE 8.1 mph - 0.01 in Snow Light Snow
4:51 AM 26.1 °F 13.1 °F 21.0 °F 81% 29.86 in 1.2 mi NNE 17.3 mph - 0.01 in Snow Light Snow
4:54 AM 24.8 °F 12.4 °F 19.4 °F 80% 29.83 in 1.5 mi NNE 15.0 mph - 0.00 in Snow Light Snow
5:22 AM 24.8 °F 11.1 °F 19.4 °F 80% 29.84 in 1.0 mi NNE 18.4 mph - 0.01 in Snow Light Snow
5:51 AM 21.9 °F 10.4 °F 16.0 °F 78% 29.88 in 1.8 mi NNE 11.5 mph 24.2 mph 0.01 in Snow Light Snow
6:06 AM 21.2 °F 6.0 °F 15.8 °F 80% 29.86 in 2.5 mi NNE 19.6 mph 24.2 mph 0.00 in Snow Light Snow
6:23 AM 21.2 °F 6.4 °F 15.8 °F 80% 29.86 in 3.0 mi North 18.4 mph 23.0 mph 0.00 in Snow Light Snow
6:36 AM 21.2 °F 6.4 °F 15.8 °F 80% 29.87 in 1.5 mi North 18.4 mph 23.0 mph 0.00 in Snow Light Snow
6:51 AM 19.9 °F 5.7 °F 15.1 °F 81% 29.90 in 1.5 mi North 16.1 mph 23.0 mph 0.00 in Snow Light Snow
7:09 AM 19.4 °F 4.5 °F 14.0 °F 80% 29.87 in 3.0 mi NNE 17.3 mph - 0.01 in Snow Light Snow
7:25 AM 19.4 °F 5.0 °F 12.2 °F 74% 29.88 in 3.0 mi North 16.1 mph 24.2 mph 0.01 in Snow Light Snow
7:51 AM 19.0 °F 4.5 °F 10.9 °F 71% 29.92 in 3.0 mi North 16.1 mph 26.5 mph 0.01 in Snow Light Snow
8:02 AM 19.4 °F 4.5 °F 10.4 °F 68% 29.89 in 2.0 mi NNE 17.3 mph 28.8 mph 0.00 in Snow Light Snow
8:09 AM 19.4 °F 6.0 °F 12.2 °F 74% 29.90 in 1.0 mi North 13.8 mph 28.8 mph 0.00 in Snow Light Snow
8:21 AM 17.6 °F 3.2 °F 12.2 °F 79% 29.90 in 1.0 mi NNE 15.0 mph - 0.00 in Snow Light Snow
8:51 AM 18.0 °F 0.9 °F 9.0 °F 68% 29.94 in 2.0 mi North 21.9 mph 28.8 mph 0.00 in Snow Light Snow
9:01 AM 17.6 °F 0.5 °F 10.4 °F 73% 29.92 in 1.8 mi North 21.9 mph 27.6 mph 0.00 in Snow Light Snow
9:14 AM 17.6 °F -0.6 °F 8.6 °F 68% 29.93 in 2.0 mi North 25.3 mph 31.1 mph 0.00 in Snow Light Snow
9:51 AM 18.0 °F 2.6 °F 9.0 °F 68% 29.98 in 2.0 mi North 17.3 mph 27.6 mph 0.00 in Snow Light Snow
10:05 AM 15.8 °F -0.2 °F 8.6 °F 73% 29.95 in 1.8 mi NNW 17.3 mph - 0.00 in Snow Light Snow
10:22 AM 15.8 °F -0.6 °F 8.6 °F 73% 29.96 in 2.0 mi North 18.4 mph - 0.00 in Snow Light Snow
10:48 AM 15.8 °F -1.5 °F 8.6 °F 73% 29.97 in 3.0 mi North 20.7 mph - 0.00 in Snow Light Snow
10:51 AM 16.0 °F 0.1 °F 8.1 °F 71% 30.01 in 3.0 mi North 17.3 mph - 0.00 in Snow Light Snow
11:45 AM 15.8 °F -0.2 °F 8.6 °F 73% 29.98 in 3.0 mi North 17.3 mph - 0.00 in   Haze
11:51 AM 16.0 °F 0.1 °F 8.1 °F 71% 30.01 in 3.0 mi North 17.3 mph - 0.00 in   Overcast
12:51 PM 17.1 °F 2.0 °F 7.0 °F 65% 30.01 in 10.0 mi NNW 16.1 mph - N/A   Mostly Cloudy
1:51 PM 17.1 °F 1.5 °F 6.1 °F 62% 30.01 in 10.0 mi North 17.3 mph 25.3 mph N/A   Overcast
2:07 PM 17.6 °F 1.7 °F 6.8 °F 63% 29.98 in 9.0 mi North 18.4 mph 25.3 mph 0.00 in Snow Light Snow
2:51 PM 17.1 °F 1.0 °F 7.0 °F 65% 30.02 in 8.0 mi North 18.4 mph - 0.00 in   Overcast
3:10 PM 17.6 °F 1.7 °F 6.8 °F 63% 29.99 in 9.0 mi NNW 18.4 mph 23.0 mph 0.00 in   Overcast
3:51 PM 17.1 °F 0.6 °F 3.0 °F 54% 30.05 in 10.0 mi North 19.6 mph - 0.00 in   Mostly Cloudy
4:51 PM 15.1 °F -1.6 °F 1.0 °F 54% 30.09 in 10.0 mi North 18.4 mph - N/A   Mostly Cloudy
5:51 PM 12.9 °F -3.4 °F -0.0 °F 56% 30.13 in 10.0 mi North 16.1 mph - N/A   Scattered Clouds
6:51 PM 10.9 °F -3.4 °F -0.9 °F 59% 30.16 in 10.0 mi North 11.5 mph - N/A   Partly Cloudy
7:51 PM 10.0 °F -3.7 °F -0.9 °F 61% 30.18 in 10.0 mi North 10.4 mph - N/A   Partly Cloudy
8:51 PM 9.0 °F -4.2 °F -2.0 °F 61% 30.17 in 10.0 mi North 9.2 mph - N/A   Mostly Cloudy
9:13 PM 8.6 °F -3.7 °F -2.2 °F 62% 30.13 in 10.0 mi NNE 8.1 mph - N/A   Mostly Cloudy
9:33 PM 8.6 °F 0.1 °F -2.2 °F 62% 30.13 in 10.0 mi NNE 4.6 mph - N/A   Scattered Clouds
9:51 PM 8.1 °F -0.5 °F -2.0 °F 64% 30.19 in 10.0 mi NNE 4.6 mph - N/A   Partly Cloudy
10:51 PM 7.0 °F -1.7 °F -0.9 °F 70% 30.19 in 10.0 mi NNW 4.6 mph - N/A   Clear
11:51 PM 6.1 °F -4.3 °F -2.0 °F 69% 30.18 in 10.0 mi NNW 5.8 mph - N/A   Partly Cloudy